Location: Park Creek Village Mobile Home Park
(38.2885°N, 122.4714°W)
Time: 17:50:26
(UTC+00:00)

Cosmos 1943 - Pass Details

Date: 14 December 2019
Orbit: 835 x 848 km, 71.0° (Epoch: 19 January)

Event Time Altitude Azimuth Distance (km) Brightness Sun altitude
Exits shadow 13:17:18 54° 281° (W) 1,014 3.2 -23.1°
Maximum altitude 13:17:58 57° 252° (WSW) 976 3.2 -22.9°
Drops below altitude 10° 13:23:26 10° 175° (S) 2,442 5.8 -21.9°
Sets 13:25:54 0° 171° (S) 3,374 6.6 -21.4°
